EW1620 Weather Reports


Display with metric or nautical units.
time (UTC)temp
F
wind
direction
speed
MPH
gust
MPH
rain 1hr
in
rain 24hr
in
rain mn
in
humidity
%
barometer
mb
20260502164047 64 28 1.0 5.0 0.00 0.00 0.00 71 1012.1
20260502163546 64 5 0.0 3.0 0.00 0.00 0.00 71 1012.1
20260502163045 65 33 1.0 4.0 0.00 0.00 0.00 71 1012.0
20260502162545 65 39 1.0 5.0 0.00 0.00 0.00 71 1012.1
20260502162045 65 67 1.0 6.0 0.00 0.00 0.00 71 1012.1
20260502161544 65 355 1.0 5.0 0.00 0.00 0.00 71 1012.2
20260502161044 65 24 1.0 6.0 0.00 0.00 0.00 70 1012.2
20260502160545 65 317 2.0 6.0 0.00 0.00 0.00 70 1012.2
20260502152040 65 349 4.0 14.0 0.00 0.00 0.00 69 1012.6
20260502151601 65 15 5.0 14.0 0.00 0.00 0.00 69 1012.5
20260502151039 65 12 3.0 12.0 0.00 0.00 0.00 69 1012.5
20260502150539 65 340 4.0 16.0 0.00 0.00 0.00 69 1012.5
20260502130522 66 360 3.0 8.0 0.00 0.00 0.00 69 1013.5
20260502123520 66 322 2.0 8.0 0.00 0.00 0.00 68 1013.9
20260502123021 66 317 3.0 8.0 0.00 0.00 0.00 67 1013.9
20260502122520 66 350 3.0 8.0 0.00 0.00 0.00 67 1013.9
20260502122023 67 313 1.0 9.0 0.00 0.00 0.00 66 1013.8
20260502121522 67 275 3.0 9.0 0.00 0.00 0.00 66 1013.9
20260502121019 67 328 1.0 6.0 0.00 0.00 0.00 65 1013.9
20260502120521 67 355 1.0 9.0 0.00 0.00 0.00 65 1014.0
20260502115519 67 28 5.0 16.0 0.00 0.00 0.00 63 1013.9
20260502115019 68 47 4.0 16.0 0.00 0.00 0.00 63 1013.6
20260502114519 68 49 4.0 13.0 0.00 0.00 0.00 61 1013.6
20260502114026 68 20 5.0 14.0 0.00 0.00 0.00 60 1013.8
20260502113518 69 314 6.0 14.0 0.00 0.00 0.00 59 1014.0
20260502113019 69 5 3.0 15.0 0.00 0.00 0.00 58 1013.9
20260502112518 69 9 4.0 20.0 0.00 0.00 0.00 56 1014.2
20260502112017 69 316 7.0 20.0 0.00 0.00 0.00 55 1014.2
20260502111521 69 325 7.0 14.0 0.00 0.00 0.00 55 1014.3
20260502111018 69 330 6.0 13.0 0.00 0.00 0.00 55 1014.4
20260502110518 69 360 7.0 14.0 0.00 0.00 0.00 54 1014.5
20260502110018 69 337 5.0 14.0 0.00 0.00 0.00 54 1014.6
20260502105517 70 313 4.0 11.0 0.00 0.00 0.00 54 1014.6
20260502105018 70 325 6.0 11.0 0.00 0.00 0.00 53 1014.6
20260502104524 70 333 3.0 8.0 0.00 0.00 0.00 53 1014.4
20260502104017 70 355 2.0 8.0 0.00 0.00 0.00 53 1014.3
20260502103517 70 324 3.0 8.0 0.00 0.00 0.00 52 1014.3
20260502103017 70 327 2.0 9.0 0.00 0.00 0.00 52 1014.2
20260502102516 70 40 3.0 8.0 0.00 0.00 0.00 52 1014.1
20260502102015 70 334 2.0 8.0 0.00 0.00 0.00 52 1014.2
20260502101515 70 330 2.0 5.0 0.00 0.00 0.00 53 1014.2
20260502101014 69 329 1.0 5.0 0.00 0.00 0.00 53 1014.1
20260502100515 69 15 1.0 8.0 0.00 0.00 0.00 53 1014.0
20260502091517 69 14 0.0 2.0 0.00 0.00 0.00 53 1014.3
20260502091013 69 346 0.0 2.0 0.00 0.00 0.00 53 1014.4
20260502090513 69 346 0.0 2.0 0.00 0.00 0.00 52 1014.3
20260502071509 74 19 3.0 8.0 0.00 0.00 0.00 46 1013.8
20260502071009 74 30 4.0 8.0 0.00 0.00 0.00 46 1013.8
20260502070509 74 15 3.0 10.0 0.00 0.00 0.00 46 1013.9
20260502070009 74 323 4.0 11.0 0.00 0.00 0.00 46 1013.8
20260502065509 74 18 5.0 12.0 0.00 0.00 0.00 45 1013.8
20260502065013 74 21 6.0 12.0 0.00 0.00 0.00 45 1013.9
20260502064509 74 360 6.0 11.0 0.00 0.00 0.00 45 1013.9
20260502064008 74 11 5.0 12.0 0.00 0.00 0.00 45 1013.8
20260502063513 74 16 7.0 11.0 0.00 0.00 0.00 45 1013.8
20260502063017 74 18 3.0 14.0 0.00 0.00 0.00 45 1013.9
20260502062507 74 47 6.0 13.0 0.00 0.00 0.00 44 1013.8
20260502062009 74 17 8.0 13.0 0.00 0.00 0.00 44 1013.7
20260502061512 75 15 6.0 13.0 0.00 0.00 0.00 44 1013.8
20260502061008 75 29 4.0 15.0 0.00 0.00 0.00 43 1013.8
20260502060507 75 5 6.0 15.0 0.00 0.00 0.00 43 1013.8
20260502060020 75 34 5.0 13.0 0.00 0.00 0.00 43 1013.9
20260502055506 76 347 5.0 14.0 0.00 0.00 0.00 42 1013.9
20260502055006 76 9 7.0 17.0 0.00 0.00 0.00 42 1013.8
20260502054506 76 47 8.0 17.0 0.00 0.00 0.00 41 1013.9
20260502054005 77 42 8.0 15.0 0.00 0.00 0.00 40 1013.9
20260502053504 77 64 9.0 15.0 0.00 0.00 0.00 40 1013.9
20260502053003 78 32 7.0 13.0 0.00 0.00 0.00 40 1013.9
20260502052509 78 311 4.0 14.0 0.00 0.00 0.00 40 1014.0
20260502052003 78 5 8.0 23.0 0.00 0.00 0.00 40 1013.8
20260502051502 78 26 7.0 23.0 0.00 0.00 0.00 39 1013.9
20260502051006 78 11 7.0 16.0 0.00 0.00 0.00 40 1013.8
20260502050501 77 311 8.0 17.0 0.00 0.00 0.00 40 1013.9
20260502050003 78 331 8.0 17.0 0.00 0.00 0.00 39 1013.9
20260502045603 78 5 9.0 16.0 0.00 0.00 0.00 39 1013.9
20260502045101 78 5 9.0 16.0 0.00 0.00 0.00 39 1013.9
20260502044601 78 355 8.0 18.0 0.00 0.00 0.00 40 1013.9
20260502044059 78 5 10.0 18.0 0.00 0.00 0.00 40 1013.9
20260502043559 78 331 7.0 16.0 0.00 0.00 0.00 40 1013.9
20260502043159 78 34 8.0 15.0 0.00 0.00 0.00 40 1013.9
20260502042600 78 31 6.0 17.0 0.00 0.00 0.00 40 1014.0
20260502042058 78 24 7.0 17.0 0.00 0.00 0.00 40 1014.1
20260502041619 78 5 8.0 16.0 0.00 0.00 0.00 40 1014.0
20260502041059 78 360 8.0 19.0 0.00 0.00 0.00 40 1014.1
20260502040555 77 327 8.0 19.0 0.00 0.00 0.00 40 1014.2
20260502040058 77 271 5.0 18.0 0.00 0.00 0.00 41 1014.2
20260502035551 76 322 9.0 17.0 0.00 0.00 0.00 41 1014.2
20260502035051 75 350 9.0 17.0 0.00 0.00 0.00 43 1014.3
20260502034549 75 28 7.0 21.0 0.00 0.00 0.00 44 1014.4
20260502034048 74 15 11.0 21.0 0.00 0.00 0.00 43 1014.4
20260502033545 74 310 7.0 17.0 0.00 0.00 0.00 45 1014.6
20260502033147 74 28 7.0 14.0 0.00 0.00 0.00 45 1014.6
20260502032543 74 26 7.0 15.0 0.00 0.00 0.00 45 1014.8
20260502032041 73 338 6.0 15.0 0.00 0.00 0.00 45 1014.9
20260502031540 73 316 4.0 12.0 0.00 0.00 0.00 46 1014.9
20260502031040 73 51 3.0 11.0 0.00 0.00 0.00 45 1014.9
20260502030539 73 339 3.0 10.0 0.00 0.00 0.00 45 1015.1
20260502030050 73 341 5.0 10.0 0.00 0.00 0.00 47 1015.2
20260502025536 72 327 3.0 12.0 0.00 0.00 0.00 47 1015.2
20260502025034 72 21 4.0 11.0 0.00 0.00 0.00 47 1015.3
20260502024536 71 260 5.0 10.0 0.00 0.00 0.00 48 1015.4
20260502024033 71 329 4.0 9.0 0.00 0.00 0.00 49 1015.5
20260502023535 71 13 5.0 9.0 0.00 0.00 0.00 51 1015.6
20260502023142 70 21 1.0 4.0 0.00 0.00 0.00 51 1015.7
20260502022529 70 59 1.0 6.0 0.00 0.00 0.00 51 1015.8
20260502022028 70 13 2.0 6.0 0.00 0.00 0.00 51 1016.0
20260502021527 70 30 2.0 8.0 0.00 0.00 0.00 51 1016.0
20260502021030 70 53 2.0 6.0 0.00 0.00 0.00 51 1016.2
20260502020525 69 40 1.0 8.0 0.00 0.00 0.00 51 1016.4
20260502020024 69 70 5.0 11.0 0.00 0.00 0.00 51 1016.5
20260502015522 69 14 6.0 11.0 0.00 0.00 0.00 51 1016.7
20260502015022 69 61 4.0 11.0 0.00 0.00 0.00 52 1016.7
20260502014524 69 31 5.0 12.0 0.00 0.00 0.00 52 1016.8
20260502014021 69 31 5.0 12.0 0.00 0.00 0.00 52 1016.8
20260502013517 69 24 5.0 13.0 0.00 0.00 0.00 52 1016.9
20260502013117 68 24 5.0 13.0 0.00 0.00 0.00 52 1016.9
20260502012517 68 45 5.0 11.0 0.00 0.00 0.00 52 1017.1
20260502012015 68 33 5.0 11.0 0.00 0.00 0.00 53 1017.2
20260502011515 68 11 5.0 11.0 0.00 0.00 0.00 53 1017.2
20260502011014 68 30 4.0 9.0 0.00 0.00 0.00 54 1017.2
20260502010513 68 34 3.0 10.0 0.00 0.00 0.00 54 1017.3
20260502010015 68 40 2.0 10.0 0.00 0.00 0.00 54 1017.4
20260502005512 67 5 2.0 10.0 0.00 0.00 0.00 54 1017.5
20260502005011 67 52 4.0 11.0 0.00 0.00 0.00 54 1017.5
20260502004510 67 38 2.0 12.0 0.00 0.00 0.00 54 1017.6
20260502004008 67 18 6.0 12.0 0.00 0.00 0.00 54 1017.7
20260502003507 67 49 4.0 15.0 0.00 0.00 0.00 54 1017.7
20260502003106 67 29 7.0 15.0 0.00 0.00 0.00 53 1017.8
20260502002508 67 347 6.0 18.0 0.00 0.00 0.00 53 1017.8
20260502002006 67 355 9.0 18.0 0.00 0.00 0.00 53 1017.9
20260502001508 67 28 7.0 15.0 0.00 0.00 0.00 54 1017.9
20260502001005 67 35 7.0 12.0 0.00 0.00 0.00 53 1018.1
20260502000503 67 11 6.0 12.0 0.00 0.00 0.00 53 1018.1
20260502000004 67 321 5.0 12.0 0.00 0.00 0.00 53 1018.1
20260501235504 67 11 4.0 12.0 0.00 0.00 0.00 53 1018.1
20260501235003 67 46 5.0 13.0 0.00 0.00 0.00 53 1018.2
20260501234503 67 39 4.0 13.0 0.00 0.00 0.00 53 1018.2
20260501234002 67 5 5.0 12.0 0.00 0.00 0.00 53 1018.2
20260501233502 67 331 4.0 12.0 0.00 0.00 0.00 53 1018.3
20260501233119 67 355 3.0 10.0 0.00 0.00 0.00 54 1018.3
20260501232501 67 38 5.0 10.0 0.00 0.00 0.00 54 1018.3
20260501232100 67 319 4.0 11.0 0.00 0.00 0.00 54 1018.4
20260501232001 67 11 6.0 11.0 0.00 0.00 0.00 54 1018.3
20260501231628 67 355 4.0 11.0 0.00 0.00 0.00 54 1018.4
20260501231100 66 5 4.0 11.0 0.00 0.00 0.00 54 1018.4
20260501230603 66 350 3.0 11.0 0.00 0.00 0.00 54 1018.4
20260501230122 66 338 4.0 11.0 0.00 0.00 0.00 54 1018.4
20260501225558 66 34 2.0 9.0 0.00 0.00 0.00 54 1018.5
20260501225056 66 14 2.0 9.0 0.00 0.00 0.00 54 1018.5
20260501224606 66 337 3.0 9.0 0.00 0.00 0.00 54 1018.5
20260501224056 66 38 2.0 8.0 0.00 0.00 0.00 54 1018.5
20260501223555 66 332 3.0 8.0 0.00 0.00 0.00 54 1018.5
20260501223057 66 360 2.0 9.0 0.00 0.00 0.00 55 1018.6
20260501222555 66 11 3.0 9.0 0.00 0.00 0.00 55 1018.6
20260501222055 66 11 4.0 10.0 0.00 0.00 0.00 55 1018.5
20260501221608 66 5 4.0 10.0 0.00 0.00 0.00 55 1018.5
20260501221050 65 355 2.0 10.0 0.00 0.00 0.00 55 1018.5
20260501220550 65 317 4.0 10.0 0.00 0.00 0.00 55 1018.5
20260501220055 65 24 3.0 11.0 0.00 0.00 0.00 55 1018.4
20260501215550 65 355 3.0 11.0 0.00 0.00 0.00 55 1018.3
20260501215048 65 17 3.0 11.0 0.00 0.00 0.00 55 1018.3
20260501214547 65 5 4.0 11.0 0.00 0.00 0.00 56 1018.3
20260501214045 65 360 2.0 10.0 0.00 0.00 0.00 56 1018.3
20260501213545 64 360 3.0 8.0 0.00 0.00 0.00 57 1018.2
20260501213044 64 351 4.0 8.0 0.00 0.00 0.00 57 1018.1
20260501212541 64 360 1.0 9.0 0.00 0.00 0.00 58 1018.1
20260501212040 64 355 3.0 9.0 0.00 0.00 0.00 58 1018.1
20260501211541 63 315 2.0 5.0 0.00 0.00 0.00 58 1018.0
20260501211041 63 53 1.0 4.0 0.00 0.00 0.00 58 1018.0
20260501210540 64 355 0.0 3.0 0.00 0.00 0.00 58 1018.0
20260501210040 64 355 0.0 2.0 0.00 0.00 0.00 58 1017.9
20260501205543 64 355 0.0 2.0 0.00 0.00 0.00 58 1017.9
20260501205039 64 355 0.0 2.0 0.00 0.00 0.00 57 1017.9
20260501204543 64 355 0.0 2.0 0.00 0.00 0.00 57 1017.9
20260501204043 64 355 0.0 2.0 0.00 0.00 0.00 57 1017.9
20260501203539 64 5 0.0 3.0 0.00 0.00 0.00 57 1017.8
20260501203040 64 5 0.0 3.0 0.00 0.00 0.00 57 1017.8
20260501202538 64 45 0.0 2.0 0.00 0.00 0.00 57 1017.8
20260501202038 64 5 0.0 2.0 0.00 0.00 0.00 57 1017.8
20260501201538 64 18 0.0 4.0 0.00 0.00 0.00 57 1017.9
20260501201037 64 5 1.0 5.0 0.00 0.00 0.00 57 1017.8
20260501200537 64 18 1.0 6.0 0.00 0.00 0.00 57 1017.8
20260501200036 64 10 2.0 8.0 0.00 0.00 0.00 58 1017.9
20260501195536 64 360 2.0 8.0 0.00 0.00 0.00 58 1017.9
20260501195036 64 22 3.0 8.0 0.00 0.00 0.00 58 1017.8
20260501194534 64 40 3.0 8.0 0.00 0.00 0.00 59 1017.8
20260501194033 63 18 2.0 8.0 0.00 0.00 0.00 60 1017.8
20260501193531 63 349 3.0 8.0 0.00 0.00 0.00 61 1017.8
20260501193036 63 24 2.0 8.0 0.00 0.00 0.00 62 1017.9
20260501192533 62 355 3.0 9.0 0.00 0.00 0.00 62 1017.9
20260501192033 62 330 3.0 9.0 0.00 0.00 0.00 64 1018.0
20260501191528 61 12 2.0 9.0 0.00 0.00 0.00 66 1018.1
20260501191030 61 346 1.0 9.0 0.00 0.00 0.00 66 1018.1
20260501190526 60 55 3.0 9.0 0.00 0.00 0.00 67 1018.1
20260501190028 60 9 4.0 9.0 0.00 0.00 0.00 69 1018.0
20260501185522 59 33 2.0 6.0 0.00 0.00 0.00 71 1018.1
20260501185022 58 17 1.0 6.0 0.00 0.00 0.00 72 1018.0
20260501184525 58 51 2.0 6.0 0.00 0.00 0.00 73 1018.1
20260501184020 58 28 1.0 4.0 0.00 0.00 0.00 74 1018.1
20260501183522 58 24 0.0 2.0 0.00 0.00 0.00 74 1018.1
20260501183018 58 17 0.0 3.0 0.00 0.00 0.00 74 1018.3
20260501182514 57 17 0.0 3.0 0.00 0.00 0.00 74 1018.3
20260501182013 57 39 0.0 2.0 0.00 0.00 0.00 74 1018.3
20260501181511 57 39 0.0 2.0 0.00 0.00 0.00 75 1018.3
20260501181010 57 36 0.0 2.0 0.00 0.00 0.00 75 1018.3
20260501180514 57 339 0.0 1.0 0.00 0.00 0.00 75 1018.4
20260501180009 57 331 0.0 1.0 0.00 0.00 0.00 76 1018.4
20260501175507 57 331 0.0 1.0 0.00 0.00 0.00 76 1018.4
20260501175012 57 331 0.0 0.0 0.00 0.00 0.00 76 1018.4
20260501174508 57 331 0.0 1.0 0.00 0.00 0.00 76 1018.4
20260501174007 57 331 0.0 2.0 0.00 0.00 0.00 77 1018.4
20260501173505 57 331 0.0 2.0 0.00 0.00 0.00 77 1018.4
20260501173006 56 330 0.0 1.0 0.00 0.00 0.00 77 1018.5
20260501172503 56 330 0.0 1.0 0.00 0.00 0.00 77 1018.5
20260501172004 56 330 0.0 2.0 0.00 0.00 0.00 78 1018.5
20260501171502 56 330 0.0 2.0 0.00 0.00 0.00 77 1018.5